McCall, ID

4:14 PM MST on February 22, 2017 (GMT -0700)
McCall

Weather History for KMYL - June, 2014

Change the Weather History Date:

Wednesday, June 18, 2014

  Actual Average Record
Temperature  
Mean Temperature 44 °F 53 °F  
Max Temperature 51 °F 69 °F 91 °F (1974)
Min Temperature 37 °F 38 °F 25 °F (1996)
Degree Days  
Heating Degree Days 21 12  
Month to date heating degree days 222 249  
Since 1 June heating degree days 222 249  
Since 1 July heating degree days 8496 9478  
Cooling Degree Days 0 0  
Month to date cooling degree days 0 0  
Year to date cooling degree days 0 0  
Since 1 June cooling degree days 0 0  
Moisture  
Dew Point 36 °F    
Average Humidity 76    
Maximum Humidity 92    
Minimum Humidity 59    
Precipitation  
Precipitation 0.06 in 0.06 in 0.66 in (1997)
Month to date precipitation 0.47 1.32  
Year to date precipitation 14.85 11.10  
Sea Level Pressure  
Sea Level Pressure 30.02 in    
Wind  
Wind Speed 3 mph (WNW)    
Max Wind Speed 12 mph    
Max Gust Speed 15 mph    
Visibility 10 miles    
Events Rain    
T = Trace of Precipitation, MM = Missing Value Source: NWS Daily Summary

Daily Weather History Graph

Daily Weather History Graph

Search for Another Location

Airport or City:

Trip Planner

Search our weather history database for the weather conditions in past years. The results will help you decide how hot, cold, wet, or windy it might be!

Date:

Astronomy

Jun. 18, 2014 Rise Set
Actual Time 5:57 AM MDT 9:33 PM MDT
Civil Twilight 5:20 AM MDT 10:10 PM MDT
Nautical Twilight 4:30 AM MDT 11:00 PM MDT
Astronomical Twilight 3:25 AM MDT 12:05 AM MDT
Moon 12:50 AM MDT (6/18) 12:41 PM MDT (6/18)
Length of Visible Light 16h 50m
Length of Day
15h 35m
Waning Gibbous, 62% of the Moon is Illuminated
Jun 18
Waning Gibbous
Jun 19
Last Quarter
Jun 27
New
Jul 5
First Quarter
Jul 12
Full

Hourly Weather History & Observations

Time (MDT) Temp. Windchill Dew Point Humidity Pressure Visibility Wind Dir Wind Speed Gust Speed Precip Events Conditions
12:51 AM 39.9 °F - 36.0 °F 86% 29.97 in 10.0 mi Calm Calm - N/A   Overcast
1:51 AM 39.9 °F - 35.1 °F 83% 29.95 in 10.0 mi Calm Calm - N/A   Overcast
2:38 AM 39.9 °F - 35.1 °F 83% 29.96 in 10.0 mi Calm Calm - N/A   Overcast
2:58 AM 39.9 °F - 34.0 °F 79% 29.96 in 10.0 mi Calm Calm - N/A   Overcast
3:43 AM 39.9 °F 37.8 °F 36.0 °F 86% 29.97 in 10.0 mi West 3.5 mph - 0.00 in Rain Light Rain
3:51 AM 39.0 °F - 36.0 °F 89% 29.95 in 10.0 mi Calm Calm - 0.00 in Rain Light Rain
4:11 AM 39.0 °F - 35.1 °F 86% 29.97 in 10.0 mi Calm Calm - 0.01 in Rain Light Rain
4:51 AM 39.0 °F 35.7 °F 35.1 °F 86% 29.96 in 10.0 mi NW 4.6 mph - 0.04 in Rain Light Rain
5:25 AM 37.9 °F 34.4 °F 35.1 °F 89% 29.98 in 10.0 mi NW 4.6 mph - 0.01 in Rain Light Rain
5:34 AM 37.9 °F 35.5 °F 34.0 °F 86% 29.98 in 10.0 mi NW 3.5 mph - 0.01 in Rain Light Rain
6:07 AM 37.9 °F 35.5 °F 34.0 °F 86% 29.98 in 10.0 mi West 3.5 mph - 0.01 in Rain Light Rain
6:51 AM 37.9 °F - 35.1 °F 89% 29.99 in 10.0 mi Calm Calm - 0.01 in   Overcast
7:33 AM 37.9 °F 34.4 °F 35.1 °F 89% 29.99 in 10.0 mi WNW 4.6 mph - N/A   Overcast
7:51 AM 37.9 °F - 35.1 °F 89% 29.99 in 10.0 mi Calm Calm - N/A   Overcast
8:47 AM 39.2 °F - 35.6 °F 87% 30.00 in 10.0 mi Calm Calm - N/A   Overcast
8:51 AM 39.9 °F - 35.1 °F 83% 30.00 in 10.0 mi Calm Calm - N/A   Overcast
9:23 AM 41.0 °F - 35.1 °F 79% 30.01 in 10.0 mi Calm Calm - N/A   Overcast
9:51 AM 41.0 °F - 35.1 °F 79% 30.01 in 10.0 mi Calm Calm - N/A   Overcast
10:51 AM 41.0 °F 39.0 °F 36.0 °F 82% 30.04 in 8.0 mi SW 3.5 mph - 0.00 in Rain Light Rain
11:12 AM 42.1 °F - 36.0 °F 79% 30.03 in 10.0 mi Calm Calm - 0.00 in Rain Light Rain
11:39 AM 43.0 °F 40.3 °F 36.0 °F 76% 30.03 in 10.0 mi SSE 4.6 mph - 0.00 in Rain Light Rain
11:51 AM 43.0 °F - 36.0 °F 76% 30.04 in 10.0 mi Calm Calm - 0.00 in Rain Light Rain
12:51 PM 45.0 °F 41.2 °F 37.0 °F 74% 30.04 in 10.0 mi West 6.9 mph - 0.00 in   Overcast
2:02 PM 48.0 °F - 37.0 °F 66% 30.03 in 10.0 mi Variable 3.5 mph - N/A   Mostly Cloudy
2:51 PM 50.0 °F - 37.9 °F 63% 30.02 in 10.0 mi West 5.8 mph - N/A   Overcast
3:26 PM 50.0 °F - 37.0 °F 61% 30.05 in 10.0 mi West 6.9 mph - N/A   Overcast
3:51 PM 50.0 °F - 37.9 °F 63% 30.04 in 10.0 mi West 6.9 mph - N/A   Overcast
4:51 PM 51.1 °F - 37.9 °F 61% 30.04 in 10.0 mi WNW 6.9 mph - N/A   Overcast
5:51 PM 50.0 °F - 37.9 °F 63% 30.05 in 10.0 mi NNW 5.8 mph - N/A   Overcast
6:27 PM 50.0 °F - 37.0 °F 61% 30.07 in 10.0 mi West 6.9 mph - N/A   Overcast
6:51 PM 50.0 °F - 37.0 °F 61% 30.07 in 10.0 mi NW 6.9 mph - N/A   Overcast
7:51 PM 50.0 °F - 37.9 °F 63% 30.07 in 10.0 mi SSE 4.6 mph - N/A   Overcast
8:03 PM 50.0 °F - 37.9 °F 63% 30.08 in 10.0 mi Variable 3.5 mph - N/A   Overcast
8:25 PM 50.0 °F - 39.0 °F 66% 30.08 in 10.0 mi Variable 3.5 mph - N/A   Overcast
8:51 PM 48.9 °F - 37.9 °F 66% 30.07 in 10.0 mi Calm Calm - N/A   Overcast
9:51 PM 48.0 °F - 39.0 °F 71% 30.06 in 10.0 mi Calm Calm - N/A   Clear
10:51 PM 42.1 °F 40.2 °F 37.9 °F 85% 30.09 in 10.0 mi NE 3.5 mph - N/A   Clear
11:51 PM 41.0 °F - 37.0 °F 86% 30.10 in 10.0 mi Calm Calm - N/A   Clear